Regional Weather Roundup
Issued by NWS

Home | Current Version | Previous Version | Text Only | Print | Product List | Glossary Off
Versions: 1 2 3 4 5 6 7 8 9 10 11 12 13 14 15 16 17 18 19 20 21 22 23 24 25 26 27 28 29 30 31 32 33 34 35 36 37 38 39 40 41 42 43 44 45 46 47 48 49 50

000
ASUS43 KLOT 080803
RWRIL

ILLINOIS REGIONAL WEATHER ROUNDUP
NATIONAL WEATHER SERVICE CHICAGO/ROMEOVILLE IL
200 AM CST MON FEB 08 2016

NOTE: "FAIR" INDICATES FEW OR NO CLOUDS BELOW 12,000 FEET WITH NO
SIGNIFICANT WEATHER AND/OR OBSTRUCTIONS TO VISIBILITY.

* THESE STATIONS ARE NOT UNDER NWS QUALITY CONTROL. THEY ALSO MAY NOT
  REPORT WEATHER SUCH AS PRECIPITATION OR FOG.

ILZ001-002-007-009-015-016-024-080900-
NORTHWEST ILLINOIS

CITY           SKY/WX    TMP DP  RH WIND       PRES   REMARKS
MOLINE         CLOUDY    32  25  75 NW20G26   29.70S WCI  20
STERLING*      CLOUDY    34  30  86 W17       29.64F WCI  23
$$

ILZ003-004-008-010-011-017-018-080900-
NORTH CENTRAL ILLINOIS

CITY           SKY/WX    TMP DP  RH WIND       PRES   REMARKS
ROCKFORD       FLURRIES  34  29  82 SW12      29.65S WCI  25
FREEPORT*      FLURRIES  32  31  95 W9        29.65F WCI  24
$$

ILZ005-006-012>014-019>023-080900-
NORTHEAST ILLINOIS

CITY           SKY/WX    TMP DP  RH WIND       PRES   REMARKS
CHICAGO-OHARE  PTCLDY    31  26  82 SW9       29.64F WCI  23
CHICAGO-MIDWAY CLEAR     33  25  72 SW9       29.65F WCI  25
AURORA         PTCLDY    31  27  85 W8        29.66F WCI  23
LANSING*       CLEAR     27  24  89 S3        29.67F
WAUKEGAN       CLEAR     29  27  92 SW5       29.62F WCI  24
DUPAGE AIRPORT CLEAR     29  24  82 SW8       29.64F WCI  21
WHEELING       PTCLDY    31  26  82 SW6       29.65F WCI  25
NORTHERLY ISL    N/A     34  27  76 W3          N/A
$$

LMZ740>746-080900-
SOUTHERN LAKE MICHIGAN

STATION/POSITION SKY/WX   TEMP    WIND        PRES    VSBY  WAVE
                          AIR SEA DIR/SP/G                  HT/PER
                          (F)     (DEG/KT/KT) (MB)    (MI)  (FT/S)
HARRISON CRIB              36     250/ 10/ 11   N/A
BURNHAM HARBOR             34     270/  7       N/A
CALUMET HARBOR             33     220/  3/  6 1004.3F
BURNS HARBOR               35     230/  8/ 11 1005.8F
MICHIGAN CITY              35     210/ 11/ 11   N/A
$$

ILZ025>027-034>036-040-047-049-050-058-095>099-080900-
WEST-CENTRAL ILLINOIS

CITY           SKY/WX    TMP DP  RH WIND       PRES   REMARKS
QUINCY         CLOUDY    34  30  85 W16G25    29.78F WCI  24
MACOMB*        CLOUDY    33  32  95 W16       29.76F FOG     WCI  23
$$

ILZ028>032-037-038-041>044-048-051>054-059>061-080900-
CENTRAL ILLINOIS

CITY           SKY/WX    TMP DP  RH WIND       PRES   REMARKS
BLOOMINGTON    CLEAR     32  29  89 W8        29.71F WCI  25
DECATUR        PTCLDY    35  29  78 W9        29.73F WCI  28
PEORIA         CLOUDY    33  28  81 W7        29.72F WCI  27
SPRINGFIELD    CLOUDY    35  30  82 W9        29.75F WCI  28
TAYLORVILLE    NOT AVBL
$$

ILZ033-039-045-046-055>057-062-063-080900-
EAST-CENTRAL ILLINOIS

CITY           SKY/WX    TMP DP  RH WIND       PRES   REMARKS
CHAMPAIGN      PTCLDY    32  29  88 W9        29.72F WCI  24
MATTOON        PTCLDY    34  30  85 SW6       29.73F WCI  29
$$

ILZ079-100>102-080900-
SOUTHWEST ILLINOIS

CITY           SKY/WX    TMP DP  RH WIND       PRES   REMARKS
BELLEVILLE     MOCLDY    39  29  69 W16       29.80S WCI  30
CAHOKIA*       CLOUDY    39  29  67 W14G24    29.82F WCI  31
SPARTA*        CLOUDY    40  26  57 W16G23    29.82S
$$

ILZ064>066-069>071-074>076-080>082-084>086-088>090-092>094-080900-
SOUTH-CENTRAL ILLINOIS

CITY           SKY/WX    TMP DP  RH WIND       PRES   REMARKS
CARBONDALE     CLOUDY    40  29  64 W8        29.82F
MT. VERNON     CLOUDY    39  27  60 W7        29.80S WCI  34
CENTRALIA*     CLOUDY    39  32  75 W9        29.78F WCI  33
SALEM*         CLOUDY    38  33  80 W7        29.78F WCI  33
$$

ILZ067-068-072-073-078-083-087-091-080900-
SOUTHEAST ILLINOIS

CITY           SKY/WX    TMP DP  RH WIND       PRES   REMARKS
LAWRENCEVILLE  CLOUDY    36  33  89 W6        29.78F WCI  31
HARRISBURG*    CLEAR     36  32  84 W6        29.81F WCI  32
ROBINSON*      PTCLDY    32  31  95 W5        29.78F WCI  27
CARMI*         CLOUDY    33  32  95 SW5       29.78F WCI  29
$$

ABBREVIATIONS USED IN REMARKS
   TC - TEMPERATURE IN CELSIUS
  WCI - WIND CHILL INDEX
   HX - HEAT INDEX
  VSB - VISIBILITY
$$




USA.gov is the U.S. government's official web portal to all federal, state and local government web resources and services.